Tracking 30510 objects as of 22-May-2025
HD Live streaming from Space Station
objects crossing your sky now

STARLINK-1554

Track STARLINK-1554 now!
10-day predictions
STARLINK-1554 is classified as:


NORAD ID: 46055
Int'l Code: 2020-055AE
Perigee: 553.3 km
Apogee: 555.4 km
Inclination: 53.1 °
Period: 95.6 minutes
Semi major axis: 6925 km
RCS: Unknown
Launch date: August 7, 2020
Source: United States (US)
Launch site: AIR FORCE EASTERN TEST RANGE (AFETR)
Your satellite tracking list
Your tracking list is empty




NASA's NSSDC Master Catalog

Two Line Element Set (TLE):
1 46055U 20055AE  25141.55648229  .00000841  00000-0  75383-4 0  9999
2 46055  53.0547 348.0540 0001488 105.6406 254.4748 15.06393076264469
Source of the keplerian elements: AFSPC